Wind_Speed
46 47 47 46 46 49 49 48 47 47 47 46 43 42 45 45 47 46 37 39 33 28 28 29 28 26 25 25 23 22 22 22 22 20 20 19 19 19 18 16 16 16 16
52 53 54 52 50 53 54 53 51 49 51 50 48 46 46 43 43 43 37 43 37 34 31 30 30 28 28 27 26 25 24 24 23 24 24 22 22 22 19 19 18 17 17
56 59 62 58 58 56 56 55 56 51 52 53 52 46 47 38 42 50 39 42 41 35 38 35 33 32 29 30 29 28 27 26 26 27 26 26 26 24 21 19 17 16 13
58 60 65 63 59 60 60 56 57 54 54 55 60 50 27 31 35 45 49 38 48 43 39 42 38 36 33 33 32 31 29 29 28 27 27 25 25 24 23 20 17 19 15
61 63 67 67 64 61 61 60 59 59 55 52 44 38 31 37 33 34 47 55 51 50 46 44 43 41 38 36 34 33 33 31 30 30 27 26 24 23 22 21 19 16 16
66 67 69 70 65 64 61 62 60 63 56 51 49 46 48 40 38 43 44 58 58 59 55 48 51 47 44 40 37 37 34 33 32 32 30 29 26 24 23 22 17 16 18
69 71 73 72 70 65 62 60 62 63 61 55 54 56 51 53 48 42 39 49 42 48 53 53 49 53 48 45 43 39 35 34 33 35 33 31 29 26 25 23 20 20 19
71 72 76 76 70 67 65 65 61 62 62 63 58 59 60 56 53 48 44 44 49 39 41 39 54 56 49 50 49 42 36 36 35 37 35 32 31 28 27 26 24 21 22
70 67 71 72 69 66 68 68 67 64 66 65 60 58 60 59 54 52 45 43 44 45 42 43 46 56 54 52 52 45 40 38 37 38 37 34 32 32 31 28 28 26 24
69 70 68 80 69 64 66 70 78 60 67 72 72 67 65 61 55 53 47 48 47 47 48 44 40 48 59 54 57 49 44 41 39 39 38 35 35 35 34 33 31 29 26
65 69 61 73 70 67 71 59 54 59 61 73 50 62 70 71 60 56 52 50 51 49 48 46 41 42 57 65 59 52 47 43 43 41 39 38 37 37 36 34 32 32 29
57 62 64 70 69 66 63 72 61 58 58 55 50 61 70 59 53 52 52 52 48 49 53 44 45 48 55 66 63 56 51 48 46 42 40 41 39 38 36 35 34 34 31
62 65 70 66 69 71 76 77 68 61 70 69 68 58 60 53 57 52 52 50 49 47 47 50 43 48 58 62 65 59 54 51 49 45 42 42 42 40 37 37 37 36 35
68 71 70 77 74 77 77 73 73 67 70 57 64 58 56 49 47 52 48 47 48 49 46 48 40 34 51 52 60 59 56 53 54 47 44 44 43 42 39 37 38 37 36
75 77 74 82 83 79 77 75 76 80 77 81 79 69 56 59 48 42 49 46 44 49 45 54 44 40 37 55 58 57 59 57 56 49 46 45 45 44 42 37 39 38 36
78 80 80 74 77 74 78 77 81 81 78 77 62 59 68 51 52 52 51 46 48 47 47 45 40 40 37 40 53 51 54 55 57 52 49 46 48 45 42 41 43 40 40
78 77 78 77 67 65 70 72 67 77 79 85 78 75 67 58 52 50 55 45 49 47 47 39 42 44 39 36 48 49 51 52 56 53 49 49 49 46 44 43 45 44 42
58 73 74 69 65 72 70 60 58 59 48 49 57 62 68 61 59 61 41 43 50 43 43 42 41 41 46 49 59 56 55 54 52 55 52 51 50 49 48 46 46 46 45
23 28 34 39 58 55 45 59 64 49 38 38 41 50 55 67 53 64 51 52 51 50 45 42 41 41 39 48 56 58 63 60 52 55 56 53 54 52 51 50 50 50 48
22 18 19 19 21 20 20 23 26 29 33 34 35 38 50 56 58 48 54 50 47 49 54 50 48 45 48 37 53 54 59 61 59 62 59 57 55 55 54 52 53 52 51
6 6 8 9 13 18 21 20 19 22 25 25 30 33 40 51 64 68 57 56 53 50 51 56 53 54 53 48 38 52 53 59 59 57 58 59 58 58 56 55 57 54 54
8 8 11 13 14 16 20 20 20 19 22 20 21 19 25 35 43 52 61 64 61 58 51 51 48 51 51 48 47 45 47 58 60 66 59 59 59 63 59 60 60 59 59
14 16 17 18 19 19 21 23 24 23 22 25 29 31 33 32 34 42 53 57 65 68 58 55 44 53 57 50 47 44 48 53 59 61 61 61 62 63 61 63 62 60 60
20 23 25 26 27 28 28 28 30 31 32 32 33 34 37 40 40 39 45 61 62 67 73 65 63 58 50 54 50 50 54 50 53 61 57 65 55 50 50 62 61 60 53
21 22 24 27 29 32 35 37 38 39 41 42 42 43 44 44 47 48 50 55 59 60 63 65 64 59 57 56 54 49 46 45 46 46 46 50 54 52 36 41 45 49 55
28 31 33 35 37 38 41 43 43 43 43 46 50 52 48 51 56 52 51 54 69 52 57 59 65 64 61 64 54 53 48 46 41 41 43 39 37 32 32 35 36 35 38
Wind_Direction
276 277 281 283 284 285 285 288 289 287 287 288 285 282 285 272 268 271 267 256 255 249 255 261 263 262 262 266 272 272 274 272 267 271 269 270 275 284 284 276 273 278 280
278 279 281 281 282 285 285 284 286 283 284 288 285 279 283 275 265 268 271 261 257 251 252 255 257 258 258 259 266 268 271 269 266 268 273 274 280 281 284 279 274 283 281
279 280 280 281 280 279 280 280 282 281 281 283 287 278 279 272 256 259 263 256 262 259 250 254 252 254 253 255 259 265 267 266 264 268 273 277 277 278 279 273 275 278 282
276 275 276 276 275 278 278 278 280 279 280 282 283 283 252 272 257 256 257 259 259 260 253 253 250 249 246 250 255 260 262 264 266 264 267 270 276 276 272 265 261 280 277
273 274 275 275 276 274 276 279 276 279 279 280 268 258 268 261 257 259 261 266 253 259 255 256 253 251 248 247 253 256 259 261 263 264 265 269 271 271 270 258 263 266 268
274 275 274 274 272 273 273 273 272 275 275 273 269 273 274 271 266 261 274 260 257 258 253 254 252 249 248 249 249 252 255 261 263 263 263 266 268 264 262 255 254 264 264
268 270 271 272 272 270 268 265 266 268 272 270 270 271 269 269 266 265 267 256 260 259 259 251 258 248 247 248 249 248 252 257 261 262 262 264 264 262 259 252 246 253 256
265 266 268 267 267 266 265 265 264 264 263 267 269 268 266 264 265 268 265 264 262 249 259 264 259 250 242 245 246 244 246 250 259 261 261 261 262 258 253 250 246 253 256
267 265 266 267 269 269 265 263 261 262 262 264 264 261 264 263 262 263 266 251 261 258 256 263 273 247 241 242 240 241 243 245 253 256 258 259 258 256 249 249 256 252 251
266 268 270 259 264 268 268 259 258 263 265 262 262 259 258 258 255 256 254 257 259 261 257 262 264 250 239 240 240 238 241 242 248 251 255 254 254 256 251 254 251 250 248
266 264 257 269 269 270 265 250 266 273 258 267 265 252 260 254 247 254 251 252 252 257 255 258 252 248 240 241 237 235 238 241 244 248 250 250 251 252 252 252 249 248 247
262 264 258 257 258 258 257 261 258 259 251 252 260 257 269 244 246 243 248 252 259 261 266 264 263 262 253 237 239 234 240 239 242 244 247 248 248 249 250 250 249 249 251
253 256 255 252 255 250 253 259 260 261 253 259 256 258 251 259 255 244 243 250 257 260 262 266 267 268 251 239 234 235 232 230 240 242 243 246 247 247 248 249 249 246 249
242 244 250 241 240 246 243 242 249 254 254 253 250 243 242 249 243 242 244 249 251 257 260 263 268 280 251 238 230 234 237 230 231 238 240 244 244 246 248 246 248 248 247
244 243 245 241 239 239 242 238 248 245 244 246 258 258 239 242 239 250 249 246 254 255 258 258 272 271 277 239 230 231 241 238 232 235 237 243 243 243 246 243 247 244 244
251 255 252 251 242 243 245 244 245 244 242 245 242 247 241 223 231 234 250 248 250 253 254 259 264 269 267 250 241 230 238 235 229 232 234 239 241 241 244 243 243 242 243
253 260 261 260 255 254 252 255 251 251 249 248 248 243 239 230 225 248 239 239 241 248 254 261 261 265 252 256 239 236 231 235 229 228 232 236 238 239 241 243 243 242 244
259 257 261 264 256 256 256 255 246 231 226 233 241 242 237 221 226 234 230 226 237 238 247 249 251 259 248 239 232 232 235 226 237 230 232 235 237 237 240 241 244 244 245
255 253 265 269 256 269 279 271 263 258 251 238 244 250 250 245 232 228 233 226 226 235 239 238 237 237 251 243 230 236 228 229 228 236 233 234 237 235 239 242 245 246 247
265 259 243 233 239 248 249 251 257 260 258 252 258 252 263 251 249 240 229 226 232 230 230 230 234 239 247 250 228 231 226 226 225 231 236 234 239 237 240 243 246 248 250
3 334 291 265 246 240 236 232 238 241 243 249 245 249 255 265 270 257 250 245 247 240 233 232 236 237 244 247 250 235 221 226 228 228 232 235 236 242 242 243 247 250 252
308 289 273 271 277 266 251 252 249 242 230 232 248 259 263 256 243 250 255 242 245 244 240 227 231 238 240 246 245 249 246 236 232 234 235 238 235 241 242 243 246 249 251
298 294 292 286 279 264 258 254 253 255 250 249 252 258 260 258 261 250 237 234 235 241 233 233 240 242 237 244 241 251 254 238 232 231 235 236 243 243 241 245 247 249 255
291 291 290 287 284 279 276 270 263 261 263 261 259 256 260 256 267 259 245 229 231 233 238 231 237 241 229 235 233 236 232 233 232 232 235 239 239 242 247 251 246 252 255
301 295 291 288 285 281 275 267 265 263 263 260 257 258 264 261 264 261 247 236 214 226 230 233 233 233 224 224 218 220 221 222 222 226 230 233 235 234 235 244 251 254 254
302 299 296 292 289 285 282 278 273 268 263 263 266 260 265 264 263 250 243 234 223 221 221 223 227 230 230 222 220 210 217 217 221 223 222 221 212 217 233 243 248 256 260
Height
5810 5807 5805 5805 5803 5800 5800 5800 5801 5800 5797 5796 5794 5794 5792 5793 5793 5791 5801 5798 5800 5800 5801 5805 5808 5811 5812 5814 5814 5815 5817 5817 5818 5820 5820 5820 5821 5821 5821 5822 5822 5823 5824
5803 5800 5797 5795 5795 5791 5791 5789 5790 5790 5789 5788 5786 5784 5783 5785 5786 5786 5792 5791 5792 5793 5793 5796 5800 5803 5807 5808 5809 5811 5812 5813 5814 5817 5817 5817 5818 5818 5818 5819 5819 5819 5819
5792 5790 5787 5787 5786 5784 5782 5781 5779 5779 5781 5780 5776 5777 5775 5776 5778 5780 5778 5784 5785 5786 5788 5788 5791 5795 5798 5801 5803 5805 5807 5808 5809 5811 5813 5814 5814 5815 5814 5815 5816 5816 5816
5782 5780 5776 5776 5776 5775 5773 5770 5768 5769 5770 5769 5762 5760 5767 5766 5768 5768 5768 5775 5776 5780 5780 5783 5784 5785 5789 5793 5796 5799 5801 5803 5804 5805 5807 5808 5809 5811 5811 5811 5812 5813 5813
5769 5766 5763 5762 5764 5762 5762 5761 5759 5758 5759 5759 5748 5758 5759 5760 5760 5759 5762 5761 5764 5769 5772 5775 5777 5779 5781 5784 5788 5792 5794 5797 5799 5800 5801 5803 5804 5806 5806 5806 5808 5809 5810
5753 5751 5748 5747 5751 5751 5749 5750 5749 5745 5747 5749 5749 5747 5749 5750 5752 5751 5751 5749 5755 5758 5761 5765 5767 5771 5772 5776 5778 5782 5787 5790 5793 5795 5794 5796 5798 5800 5800 5801 5803 5805 5807
5740 5738 5733 5731 5735 5737 5738 5737 5736 5733 5734 5735 5737 5737 5738 5740 5740 5741 5743 5743 5744 5746 5751 5754 5757 5761 5764 5767 5770 5773 5779 5783 5785 5788 5788 5790 5792 5794 5795 5796 5796 5799 5800
5724 5723 5719 5716 5721 5722 5722 5721 5721 5720 5718 5720 5721 5722 5723 5726 5727 5730 5731 5733 5736 5737 5741 5744 5746 5749 5754 5757 5761 5764 5769 5774 5778 5781 5782 5783 5786 5788 5789 5791 5792 5793 5796
5706 5709 5706 5702 5703 5705 5704 5704 5703 5703 5703 5705 5706 5705 5709 5714 5717 5719 5720 5722 5726 5728 5731 5730 5732 5737 5743 5748 5750 5754 5758 5764 5770 5772 5774 5776 5778 5781 5782 5785 5787 5788 5790
5690 5690 5692 5680 5682 5691 5682 5673 5683 5686 5687 5689 5688 5690 5694 5700 5702 5707 5709 5711 5713 5714 5720 5720 5721 5725 5731 5736 5741 5744 5748 5755 5760 5763 5767 5768 5771 5775 5776 5779 5781 5781 5783
5671 5673 5679 5668 5672 5674 5676 5663 5662 5676 5654 5670 5666 5673 5677 5682 5686 5692 5697 5700 5702 5703 5705 5709 5711 5716 5719 5723 5729 5734 5739 5744 5749 5754 5758 5760 5763 5766 5769 5772 5774 5776 5777
5652 5654 5653 5651 5652 5653 5656 5659 5659 5663 5660 5659 5666 5662 5666 5665 5672 5675 5683 5686 5688 5690 5695 5694 5698 5702 5706 5710 5718 5723 5728 5733 5740 5745 5748 5751 5754 5757 5760 5764 5766 5768 5770
5621 5626 5627 5629 5631 5632 5634 5637 5642 5643 5647 5648 5652 5653 5652 5655 5657 5660 5666 5671 5677 5680 5682 5684 5685 5687 5687 5693 5704 5711 5717 5723 5728 5734 5739 5742 5746 5749 5751 5756 5758 5760 5762
5586 5591 5596 5601 5605 5609 5611 5615 5623 5627 5632 5630 5635 5638 5643 5637 5642 5646 5651 5657 5660 5665 5670 5673 5673 5673 5675 5680 5693 5699 5705 5710 5715 5722 5728 5731 5736 5741 5742 5746 5750 5753 5754
5559 5560 5565 5571 5576 5582 5587 5592 5598 5602 5608 5613 5615 5621 5623 5631 5628 5637 5637 5644 5648 5652 5659 5663 5661 5663 5666 5671 5679 5687 5694 5699 5704 5710 5716 5721 5727 5730 5734 5736 5742 5744 5746
5533 5534 5538 5544 5553 5558 5562 5569 5573 5579 5585 5592 5599 5604 5607 5611 5612 5621 5625 5631 5636 5640 5645 5650 5652 5653 5656 5661 5669 5677 5682 5687 5691 5697 5703 5710 5716 5720 5725 5727 5732 5735 5737
5510 5513 5517 5523 5530 5536 5543 5548 5554 5561 5563 5569 5576 5584 5592 5593 5597 5605 5608 5616 5621 5624 5628 5636 5639 5643 5646 5652 5658 5666 5672 5677 5680 5686 5692 5698 5705 5710 5714 5717 5722 5724 5727
5492 5498 5502 5506 5512 5520 5524 5530 5534 5537 5541 5547 5553 5560 5569 5573 5580 5591 5597 5602 5608 5611 5617 5624 5626 5630 5634 5640 5646 5655 5660 5666 5671 5675 5680 5687 5694 5699 5703 5707 5712 5715 5717
5479 5482 5487 5490 5498 5501 5502 5510 5515 5518 5524 5528 5535 5539 5548 5556 5560 5572 5579 5583 5591 5596 5600 5609 5615 5618 5623 5626 5632 5639 5646 5654 5659 5665 5669 5674 5682 5688 5692 5696 5701 5704 5707
5477 5478 5480 5483 5486 5490 5492 5495 5499 5503 5509 5513 5517 5532 5529 5540 5546 5554 5563 5569 5575 5581 5587 5595 5602 5605 5613 5615 5619 5625 5632 5642 5648 5653 5658 5664 5670 5676 5681 5685 5690 5693 5696
5474 5477 5479 5481 5483 5486 5487 5489 5491 5494 5497 5500 5505 5509 5514 5523 5531 5539 5547 5554 5561 5567 5575 5582 5587 5595 5600 5605 5612 5617 5622 5631 5635 5641 5647 5652 5660 5665 5670 5675 5678 5682 5685
5476 5477 5478 5479 5479 5479 5482 5483 5485 5487 5489 5490 5495 5497 5502 5507 5515 5520 5530 5538 5548 5555 5562 5569 5575 5582 5588 5595 5599 5607 5612 5619 5625 5629 5633 5640 5646 5651 5657 5661 5665 5668 5671
5474 5474 5474 5474 5474 5475 5477 5478 5479 5480 5480 5483 5486 5489 5493 5497 5501 5506 5512 5519 5527 5538 5547 5556 5562 5570 5576 5583 5590 5595 5603 5609 5612 5619 5623 5627 5633 5638 5643 5648 5651 5655 5659
5470 5469 5468 5468 5467 5467 5467 5467 5469 5470 5471 5473 5476 5479 5482 5485 5487 5492 5496 5501 5508 5518 5530 5541 5552 5561 5564 5570 5578 5585 5588 5591 5597 5603 5608 5613 5621 5626 5630 5635 5640 5644 5648
5465 5464 5463 5461 5460 5459 5458 5459 5459 5459 5459 5460 5461 5463 5466 5469 5472 5473 5476 5482 5491 5502 5511 5523 5534 5544 5551 5557 5560 5567 5575 5581 5586 5591 5595 5602 5607 5612 5618 5623 5628 5632 5634
5459 5457 5455 5453 5451 5449 5446 5445 5445 5445 5446 5447 5449 5449 5449 5450 5451 5454 5457 5466 5474 5487 5498 5508 5516 5526 5537 5543 5549 5554 5562 5570 5575 5579 5586 5592 5597 5601 5607 5613 5617 5621 5624